| time (UTC) | temp C | wind direction | speed KPH | gust KPH | rain 1hr cm | rain 24hr cm | rain mn cm | humidity % | barometer mb |
| 20260906173135 | 23 | 164 | 6.4 | 19.3 | 0.00 | 0.00 | 0.00 | 85 | 1016.9 |
| 20260906172234 | 23 | 165 | 6.4 | 16.1 | 0.00 | 0.00 | 0.00 | 86 | 1017.0 |
| 20260906171334 | 23 | 157 | 4.8 | 16.1 | 0.00 | 0.00 | 0.00 | 86 | 1017.0 |
| 20260906170435 | 23 | 160 | 4.8 | 16.1 | 0.00 | 0.00 | 0.00 | 85 | 1017.2 |
| 20260906165534 | 23 | 168 | 4.8 | 14.5 | 0.00 | 0.00 | 0.00 | 85 | 1017.2 |
| 20260906164634 | 23 | 178 | 6.4 | 22.5 | 0.00 | 0.00 | 0.00 | 85 | 1017.3 |
| 20260906163735 | 23 | 167 | 8.0 | 17.7 | 0.00 | 0.00 | 0.00 | 84 | 1017.3 |
| 20260906162834 | 24 | 169 | 8.0 | 22.5 | 0.00 | 0.00 | 0.00 | 84 | 1017.4 |
| 20260906161934 | 24 | 175 | 8.0 | 19.3 | 0.00 | 0.00 | 0.00 | 85 | 1017.5 |
| 20260906161034 | 23 | 160 | 6.4 | 19.3 | 0.00 | 0.00 | 0.00 | 85 | 1017.5 |
| 20260906160134 | 24 | 170 | 4.8 | 14.5 | 0.00 | 0.00 | 0.00 | 85 | 1017.6 |
| 20260906155234 | 24 | 172 | 3.2 | 14.5 | 0.00 | 0.00 | 0.00 | 84 | 1017.5 |
| 20260906154334 | 24 | 175 | 4.8 | 17.7 | 0.00 | 0.00 | 0.00 | 84 | 1017.5 |
| 20260906153434 | 24 | 157 | 4.8 | 16.1 | 0.00 | 0.00 | 0.00 | 85 | 1017.5 |
| 20260906152534 | 24 | 173 | 4.8 | 16.1 | 0.00 | 0.00 | 0.00 | 84 | 1017.7 |
| 20260906151634 | 24 | 166 | 6.4 | 16.1 | 0.00 | 0.00 | 0.00 | 85 | 1017.6 |
| 20260906150734 | 24 | 153 | 6.4 | 14.5 | 0.00 | 0.00 | 0.00 | 85 | 1017.5 |
| 20260906145834 | 24 | 160 | 6.4 | 19.3 | 0.00 | 0.00 | 0.00 | 85 | 1017.5 |
| 20260906144934 | 23 | 167 | 3.2 | 14.5 | 0.00 | 0.00 | 0.00 | 86 | 1017.4 |
| 20260906144034 | 23 | 175 | 4.8 | 14.5 | 0.00 | 0.00 | 0.00 | 87 | 1017.4 |
| 20260906143134 | 23 | 162 | 4.8 | 16.1 | 0.00 | 0.00 | 0.00 | 88 | 1017.3 |
| 20260906142234 | 23 | 151 | 3.2 | 14.5 | 0.00 | 0.00 | 0.00 | 89 | 1017.3 |
| 20260906140434 | 22 | 155 | 4.8 | 16.1 | 0.00 | 0.00 | 0.00 | 92 | 1017.2 |
| 20260906135534 | 22 | 156 | 4.8 | 12.9 | 0.00 | 0.00 | 0.00 | 93 | 1017.2 |
| 20260906132834 | 21 | 142 | 1.6 | 9.7 | 0.00 | 0.00 | 0.00 | 95 | 1017.1 |
| 20260906131934 | 21 | 156 | 1.6 | 6.4 | 0.00 | 0.00 | 0.00 | 95 | 1017.1 |
| 20260906131034 | 20 | 131 | 3.2 | 11.3 | 0.00 | 0.00 | 0.00 | 95 | 1017.0 |
| 20260906130134 | 20 | 126 | 1.6 | 9.7 | 0.00 | 0.00 | 0.00 | 95 | 1016.8 |
| 20260906125234 | 20 | 132 | 1.6 | 4.8 | 0.00 | 0.00 | 0.00 | 95 | 1016.8 |
| 20260906124334 | 20 | 148 | 1.6 | 6.4 | 0.00 | 0.00 | 0.00 | 95 | 1016.8 |
| 20260906123433 | 20 | 128 | 0.0 | 4.8 | 0.00 | 0.00 | 0.00 | 95 | 1016.9 |
| 20260906122534 | 20 | 122 | 0.0 | 4.8 | 0.00 | 0.00 | 0.00 | 95 | 1016.9 |
| 20260906121633 | 19 | 116 | 0.0 | 6.4 | 0.00 | 0.00 | 0.00 | 94 | 1016.8 |
| 20260906120733 | 19 | 126 | 0.0 | 1.6 | 0.00 | 0.00 | 0.00 | 94 | 1016.8 |
| 20260906115834 | 19 | 127 | 0.0 | 1.6 | 0.00 | 0.00 | 0.00 | 94 | 1016.9 |
| 20260906114933 | 19 | 127 | 0.0 | 1.6 | 0.00 | 0.00 | 0.00 | 94 | 1016.9 |
| 20260906113133 | 20 | 119 | 0.0 | 3.2 | 0.00 | 0.00 | 0.00 | 94 | 1016.7 |
| 20260906112233 | 20 | 108 | 0.0 | 6.4 | 0.00 | 0.00 | 0.00 | 94 | 1016.7 |
| 20260906111333 | 20 | 128 | 0.0 | 3.2 | 0.00 | 0.00 | 0.00 | 94 | 1016.6 |
| 20260906110433 | 20 | 157 | 1.6 | 8.0 | 0.00 | 0.00 | 0.00 | 94 | 1016.5 |
| 20260906105533 | 20 | 166 | 0.0 | 6.4 | 0.00 | 0.00 | 0.00 | 94 | 1016.6 |
| 20260906104633 | 20 | 163 | 1.6 | 6.4 | 0.00 | 0.00 | 0.00 | 94 | 1016.6 |
| 20260906103733 | 20 | 159 | 0.0 | 6.4 | 0.00 | 0.00 | 0.00 | 94 | 1016.5 |
| 20260906102833 | 20 | 149 | 0.0 | 8.0 | 0.00 | 0.00 | 0.00 | 94 | 1016.4 |
| 20260906101933 | 20 | 165 | 0.0 | 8.0 | 0.00 | 0.00 | 0.00 | 94 | 1016.4 |
| 20260906100133 | 20 | 0 | 0.0 | 0.0 | 0.00 | 0.00 | 0.00 | 94 | 1016.4 |
| 20260906095233 | 20 | 154 | 0.0 | 3.2 | 0.00 | 0.00 | 0.00 | 94 | 1016.2 |
| 20260906094333 | 20 | 154 | 0.0 | 1.6 | 0.00 | 0.00 | 0.00 | 94 | 1016.2 |
| 20260906093433 | 20 | 154 | 0.0 | 1.6 | 0.00 | 0.00 | 0.00 | 94 | 1016.3 |
| 20260906091633 | 20 | 0 | 0.0 | 0.0 | 0.00 | 0.00 | 0.00 | 94 | 1015.9 |
| 20260906090733 | 20 | 0 | 0.0 | 0.0 | 0.00 | 0.00 | 0.00 | 93 | 1016.0 |
| 20260906085833 | 20 | 0 | 0.0 | 0.0 | 0.00 | 0.00 | 0.00 | 93 | 1015.9 |
| 20260906084933 | 20 | 0 | 0.0 | 0.0 | 0.00 | 0.00 | 0.00 | 93 | 1015.9 |
| 20260906084033 | 20 | 0 | 0.0 | 0.0 | 0.00 | 0.00 | 0.00 | 93 | 1015.9 |
| 20260906083133 | 20 | 0 | 0.0 | 0.0 | 0.00 | 0.00 | 0.00 | 93 | 1015.9 |
| 20260906082233 | 21 | 0 | 0.0 | 0.0 | 0.00 | 0.00 | 0.00 | 93 | 1015.7 |
| 20260906081333 | 21 | 154 | 0.0 | 1.6 | 0.00 | 0.00 | 0.00 | 93 | 1015.6 |
| 20260906080433 | 21 | 155 | 0.0 | 8.0 | 0.00 | 0.00 | 0.00 | 93 | 1015.6 |
| 20260906075533 | 21 | 121 | 0.0 | 3.2 | 0.00 | 0.00 | 0.00 | 93 | 1015.5 |
| 20260906074633 | 21 | 122 | 0.0 | 3.2 | 0.00 | 0.00 | 0.00 | 93 | 1015.5 |
| 20260906073733 | 21 | 124 | 1.6 | 3.2 | 0.00 | 0.00 | 0.00 | 92 | 1015.5 |
| 20260906071932 | 21 | 130 | 0.0 | 1.6 | 0.00 | 0.00 | 0.00 | 92 | 1015.6 |
| 20260906071032 | 21 | 137 | 0.0 | 4.8 | 0.00 | 0.00 | 0.00 | 92 | 1015.7 |
| 20260906070132 | 21 | 154 | 0.0 | 3.2 | 0.00 | 0.00 | 0.00 | 92 | 1015.9 |
| 20260906065233 | 21 | 141 | 0.0 | 3.2 | 0.00 | 0.00 | 0.00 | 92 | 1015.9 |
| 20260906064332 | 21 | 125 | 0.0 | 3.2 | 0.00 | 0.00 | 0.00 | 92 | 1016.0 |
| 20260906063433 | 21 | 0 | 0.0 | 0.0 | 0.00 | 0.00 | 0.00 | 92 | 1016.1 |
| 20260906062532 | 21 | 120 | 0.0 | 1.6 | 0.00 | 0.00 | 0.00 | 92 | 1016.1 |
| 20260906055832 | 21 | 145 | 0.0 | 3.2 | 0.00 | 0.00 | 0.00 | 91 | 1016.1 |
| 20260906054932 | 21 | 126 | 0.0 | 4.8 | 0.00 | 0.00 | 0.00 | 91 | 1016.0 |
| 20260906054032 | 21 | 145 | 0.0 | 4.8 | 0.00 | 0.00 | 0.00 | 92 | 1016.0 |
| 20260906053132 | 21 | 142 | 0.0 | 6.4 | 0.00 | 0.00 | 0.00 | 91 | 1016.0 |
| 20260906052232 | 21 | 137 | 0.0 | 4.8 | 0.00 | 0.00 | 0.00 | 91 | 1016.0 |
| 20260906051332 | 22 | 138 | 1.6 | 4.8 | 0.00 | 0.00 | 0.00 | 91 | 1016.0 |
| 20260906050432 | 22 | 143 | 0.0 | 3.2 | 0.00 | 0.00 | 0.00 | 91 | 1016.0 |
| 20260906045532 | 22 | 131 | 0.0 | 4.8 | 0.00 | 0.00 | 0.00 | 90 | 1016.1 |
| 20260906044632 | 22 | 149 | 0.0 | 1.6 | 0.00 | 0.00 | 0.00 | 90 | 1016.2 |
| 20260906043732 | 22 | 150 | 0.0 | 3.2 | 0.00 | 0.00 | 0.00 | 90 | 1016.3 |
| 20260906041932 | 22 | 120 | 0.0 | 4.8 | 0.00 | 0.00 | 0.00 | 90 | 1016.4 |
| 20260906041032 | 22 | 0 | 0.0 | 0.0 | 0.00 | 0.00 | 0.00 | 90 | 1016.3 |
| 20260906035232 | 22 | 139 | 1.6 | 6.4 | 0.00 | 0.00 | 0.00 | 90 | 1016.2 |
| 20260906034332 | 23 | 134 | 0.0 | 6.4 | 0.00 | 0.00 | 0.00 | 89 | 1016.4 |
| 20260906033432 | 23 | 150 | 1.6 | 6.4 | 0.00 | 0.00 | 0.00 | 89 | 1016.3 |
| 20260906032532 | 23 | 171 | 0.0 | 4.8 | 0.00 | 0.00 | 0.00 | 89 | 1016.3 |
| 20260906031632 | 23 | 156 | 0.0 | 4.8 | 0.00 | 0.00 | 0.00 | 89 | 1016.2 |
| 20260906030732 | 23 | 147 | 0.0 | 6.4 | 0.00 | 0.00 | 0.00 | 89 | 1016.4 |
| 20260906025832 | 23 | 148 | 0.0 | 3.2 | 0.00 | 0.00 | 0.00 | 88 | 1016.4 |
| 20260906024932 | 23 | 173 | 0.0 | 3.2 | 0.00 | 0.00 | 0.00 | 88 | 1016.4 |
| 20260906023132 | 23 | 178 | 0.0 | 1.6 | 0.00 | 0.00 | 0.00 | 87 | 1016.3 |
| 20260906021332 | 23 | 0 | 0.0 | 0.0 | 0.00 | 0.00 | 0.00 | 85 | 1016.2 |
| 20260906020432 | 23 | 0 | 0.0 | 0.0 | 0.00 | 0.00 | 0.00 | 85 | 1016.1 |
| 20260906015531 | 23 | 0 | 0.0 | 0.0 | 0.00 | 0.00 | 0.00 | 84 | 1015.8 |
| 20260906014631 | 23 | 178 | 0.0 | 1.6 | 0.00 | 0.00 | 0.00 | 84 | 1015.5 |
| 20260906013731 | 24 | 178 | 0.0 | 3.2 | 0.00 | 0.00 | 0.00 | 83 | 1015.1 |
| 20260906012832 | 24 | 178 | 0.0 | 4.8 | 0.00 | 0.00 | 0.00 | 82 | 1014.8 |
| 20260906011932 | 24 | 182 | 0.0 | 4.8 | 0.00 | 0.00 | 0.00 | 82 | 1014.5 |
| 20260906011031 | 25 | 175 | 1.6 | 4.8 | 0.00 | 0.00 | 0.00 | 80 | 1014.4 |
| 20260906010131 | 25 | 156 | 0.0 | 3.2 | 0.00 | 0.00 | 0.00 | 79 | 1014.2 |
| 20260906005231 | 25 | 171 | 1.6 | 8.0 | 0.00 | 0.00 | 0.00 | 78 | 1014.1 |
| 20260906003431 | 26 | 175 | 3.2 | 9.7 | 0.00 | 0.00 | 0.00 | 74 | 1013.9 |
| 20260906001631 | 28 | 177 | 1.6 | 11.3 | 0.00 | 0.00 | 0.00 | 69 | 1013.8 |
| 20260905235831 | 28 | 175 | 0.0 | 4.8 | 0.00 | 0.00 | 0.00 | 67 | 1013.9 |
| 20260905234931 | 29 | 173 | 0.0 | 4.8 | 0.00 | 0.00 | 0.00 | 64 | 1013.9 |
| 20260905233131 | 30 | 95 | 0.0 | 6.4 | 0.00 | 0.00 | 0.00 | 65 | 1013.8 |
| 20260905232231 | 30 | 107 | 0.0 | 6.4 | 0.00 | 0.00 | 0.00 | 64 | 1013.7 |
| 20260905230431 | 30 | 67 | 1.6 | 8.0 | 0.00 | 0.00 | 0.00 | 64 | 1013.8 |
| 20260905225531 | 30 | 89 | 1.6 | 6.4 | 0.00 | 0.00 | 0.00 | 65 | 1013.7 |
| 20260905223731 | 30 | 72 | 1.6 | 8.0 | 0.00 | 0.00 | 0.00 | 64 | 1013.5 |
| 20260905222831 | 30 | 63 | 3.2 | 11.3 | 0.00 | 0.00 | 0.00 | 65 | 1013.5 |
| 20260905221931 | 30 | 62 | 3.2 | 11.3 | 0.00 | 0.00 | 0.00 | 65 | 1013.3 |
| 20260905220131 | 30 | 87 | 3.2 | 14.5 | 0.00 | 0.00 | 0.00 | 65 | 1013.3 |
| 20260905215231 | 30 | 88 | 3.2 | 14.5 | 0.00 | 0.00 | 0.00 | 65 | 1013.4 |
| 20260905214331 | 29 | 100 | 3.2 | 12.9 | 0.00 | 0.00 | 0.00 | 65 | 1013.1 |
| 20260905213431 | 29 | 68 | 4.8 | 19.3 | 0.00 | 0.00 | 0.00 | 68 | 1013.2 |
| 20260905212531 | 29 | 54 | 4.8 | 19.3 | 0.00 | 0.00 | 0.00 | 68 | 1013.3 |
| 20260905211631 | 28 | 58 | 4.8 | 12.9 | 0.00 | 0.00 | 0.00 | 71 | 1013.4 |
| 20260905210731 | 28 | 57 | 4.8 | 16.1 | 0.00 | 0.00 | 0.00 | 71 | 1013.6 |
| 20260905204931 | 28 | 40 | 6.4 | 17.7 | 0.00 | 0.00 | 0.00 | 74 | 1013.9 |
| 20260905204030 | 28 | 39 | 8.0 | 17.7 | 0.00 | 0.00 | 0.00 | 74 | 1014.1 |
| 20260905203130 | 28 | 46 | 3.2 | 16.1 | 0.00 | 0.00 | 0.00 | 74 | 1014.4 |
| 20260905202230 | 27 | 43 | 4.8 | 16.1 | 0.00 | 0.00 | 0.00 | 77 | 1014.5 |
| 20260905200431 | 27 | 42 | 4.8 | 17.7 | 0.00 | 0.00 | 0.00 | 79 | 1014.7 |
| 20260905195531 | 26 | 33 | 6.4 | 17.7 | 0.00 | 0.00 | 0.00 | 80 | 1014.9 |
| 20260905194630 | 26 | 51 | 4.8 | 14.5 | 0.00 | 0.00 | 0.00 | 81 | 1015.2 |
| 20260905192830 | 26 | 35 | 6.4 | 14.5 | 0.00 | 0.00 | 0.00 | 81 | 1015.1 |
| 20260905190130 | 25 | 26 | 3.2 | 11.3 | 0.00 | 0.00 | 0.00 | 83 | 1015.5 |
| 20260905185234 | 25 | 53 | 4.8 | 17.7 | 0.00 | 0.00 | 0.00 | 84 | 1015.5 |
| 20260905184330 | 25 | 51 | 6.4 | 17.7 | 0.00 | 0.00 | 0.00 | 85 | 1015.3 |
| 20260905181630 | 23 | 90 | 1.6 | 9.7 | 0.00 | 0.00 | 0.00 | 92 | 1015.8 |
| 20260905180730 | 22 | 127 | 1.6 | 4.8 | 0.00 | 0.00 | 0.00 | 93 | 1016.2 |
| 20260905175830 | 21 | 151 | 1.6 | 4.8 | 0.00 | 0.00 | 0.00 | 93 | 1016.5 |
| 20260905174930 | 21 | 137 | 1.6 | 9.7 | 0.00 | 0.00 | 0.00 | 94 | 1016.7 |
| 20260905174030 | 21 | 149 | 3.2 | 9.7 | 0.00 | 0.00 | 0.00 | 95 | 1016.8 |